Tracking 27086 objects as of 22-Mar-2023
HD Live streaming from Space Station
objects crossing your sky now

ASTRA 1G

Track ASTRA 1G now!
ASTRA 1G is classified as:


NORAD ID: 25071
Int'l Code: 1997-076A
Perigee: 35,773.4 km
Apogee: 35,813.5 km
Inclination: 6.9 °
Period: 1,436.1 minutes
Semi major axis: 42164 km
RCS: 1.138 m2 (large)
Launch date: December 2, 1997
Source: SOCIETE EUROPEENNE DES SATELLITES (SES)
Launch site: TYURATAM MISSILE AND SPACE COMPLEX (TTMTR)

Direct-to-home tv; multimedia; 32 Ku-band transponders; Europe
Your satellite tracking list
Your tracking list is empty




NASA's NSSDC Master Catalog

Two Line Element Set (TLE):
1 25071U 97076A   23080.61879397  .00000102  00000-0  00000-0 0  9990
2 25071   6.8808  66.0900 0004766 291.9337  62.9761  1.00272834 92633
Source of the keplerian elements: AFSPC